Location: Greenwich
(51.4790°N, 0.0090°E)
Time: 16:21:29
(UTC+01:00)

Envisat - Visible Passes

Search period start: 01 October 2022 00:00
Search period end: 11 October 2022 00:00
Orbit: 764 x 765 km, 98.2° (Epoch: 01 October)

Date Brightness Start Highest point End Pass type
(mag) Time Alt. Az. Time Alt. Az. Time Alt. Az.
01 Oct 5.0 04:33:54 10° NE 04:38:15 28° E 04:42:35 10° SSE visible
01 Oct 3.2 06:12:36 10° N 06:17:30 50° WNW 06:22:23 10° SW visible
02 Oct 5.8 03:58:07 10° NE 04:00:50 14° E 04:03:32 10° ESE visible
02 Oct 3.0 05:35:30 10° NNE 05:40:37 86° ESE 05:45:43 10° SSW visible
03 Oct 4.1 04:58:40 10° NNE 05:03:33 44° E 05:08:23 10° S visible
04 Oct 5.3 04:22:16 10° NE 04:26:16 23° E 04:30:15 10° SE visible
04 Oct 3.0 06:00:40 10° N 06:05:41 61° WNW 06:10:41 10° SSW visible
05 Oct 6.0 03:47:12 10° ENE 03:48:47 11° E 03:50:22 10° ESE visible
05 Oct 3.3 05:23:39 10° NNE 05:28:45 71° ESE 05:33:48 10° S visible
06 Oct 4.5 04:46:55 10° NNE 04:51:37 36° E 04:56:15 10° SSE visible
06 Oct 3.5 06:25:57 10° N 06:30:40 39° WNW 06:35:21 10° SW visible
07 Oct 5.5 04:10:44 10° NE 04:14:17 19° E 04:17:46 10° SE visible
07 Oct 2.9 05:48:45 10° NNE 05:53:51 75° WNW 05:58:55 10° SSW visible
08 Oct 3.6 05:11:49 10° NNE 05:16:51 57° E 05:21:50 10° S visible
09 Oct 4.9 04:35:13 10° NNE 04:39:39 29° E 04:44:03 10° SSE visible
09 Oct 3.3 06:13:59 10° N 06:18:52 48° WNW 06:23:43 10° SW visible
10 Oct 5.8 03:59:21 10° NE 04:02:14 15° E 04:05:07 10° ESE visible
10 Oct 3.0 05:36:52 10° NNE 05:41:59 90° E 05:47:05 10° SSW visible
